Location: Rounton
(54.4000°N, 1.3500°W)
Time: 03:03:57
(UTC+00:00)

A-11 Canister half - Pass Details

Date: 07 December 2021
Orbit: 1524 x 1684 km, 47.3° (Epoch: 19 January)

Event Time Altitude Azimuth Distance (km) Brightness Sun altitude
Exits shadow 02:20:37 32° 107° (ESE) 2,588 10.2 -48.4°
Drops below altitude 10° 02:25:31 10° 91° (E) 3,896 11.5 -47.8°
Sets 02:28:43 0° 87° (E) 4,865 12.2 -47.4°
